FlightSource - Aviation Photo Database

World Wide Airport Lookup


Search by ICAO
Or
Search by City

FlightSource.ca - Aviation Photo Database - Port Hardy Airport Information
Airport Identification
Name: Port Hardy Airport
ICAO: CYZT
IATA: YZT
Airport Location
City: Port Hardy
Region: BC
Country: Canada
Continent: North America
Latitude: 50.6806
Longitude: -127.367
Airport Information
Type: Medium Airport
Elevation: 71 Feet ASL
Flight Status: CYZT
More Info: CYZT
Airport Weather    
Metar: CYZT 251535Z 23013KT 8SM -SHSN BKN030TCU BKN110 01/M01 A2972 RMK TCU6AC1 SLP065
TAF:


Advertisement